Ellsworth AFB, SD

12:57 AM MST on December 13, 2017 (GMT -0700)
Ellsworth Air Force Base

Weather History for KRCA - March, 2013

Change the Weather History Date:

Wednesday, March 13, 2013

  Actual Average Record
Temperature  
Mean Temperature 46 °F -  
Max Temperature 66 °F 39 °F 74 °F (2012)
Min Temperature 27 °F 20 °F 5 °F (1997)
Degree Days  
Heating Degree Days 20    
Moisture  
Dew Point 17 °F    
Average Humidity 33    
Maximum Humidity 47    
Minimum Humidity 24    
Precipitation  
Precipitation 0.00 in - - ()
Sea Level Pressure  
Sea Level Pressure 30.13 in    
Wind  
Wind Speed 8 mph (SSW)    
Max Wind Speed 14 mph    
Max Gust Speed 23 mph    
Visibility 10 miles    
Events      
Averages and records for this station are not official NWS values.
T = Trace of Precipitation, MM = Missing Value Source: NWS Daily Summary

Daily Weather History Graph

Daily Weather History Graph

Search for Another Location

Airport or City:

Trip Planner

Search our weather history database for the weather conditions in past years. The results will help you decide how hot, cold, wet, or windy it might be!

Date:

Astronomy

Mar. 13, 2013 Rise Set
Actual Time 7:07 AM MDT 6:56 PM MDT
Civil Twilight 6:38 AM MDT 7:25 PM MDT
Nautical Twilight 6:05 AM MDT 7:58 PM MDT
Astronomical Twilight 5:31 AM MDT 8:33 PM MDT
Moon 7:43 AM MDT 9:22 PM MDT
Length of Visible Light 12h 46m
Length of Day
11h 48m
Waxing Crescent, 4% of the Moon is Illuminated
Mar 13
Waxing Crescent
Mar 19
First Quarter
Mar 27
Full
Apr 2
Last Quarter
Apr 10
New

Hourly Weather History & Observations

Time (MDT) Temp. Windchill Dew Point Humidity Pressure Visibility Wind Dir Wind Speed Gust Speed Precip Events Conditions
12:55 AM 27.0 °F 16.1 °F 2.1 °F 34% 30.25 in 10.0 mi SSE 12.7 mph - N/A   Overcast
1:55 AM 29.5 °F 18.8 °F 2.7 °F 32% 30.22 in 10.0 mi SSE 13.8 mph 23.0 mph N/A   Overcast
2:55 AM 30.7 °F 23.3 °F 3.9 °F 32% 30.20 in 10.0 mi SSE 8.1 mph - N/A   Overcast
3:55 AM 30.7 °F 22.6 °F 4.3 °F 33% 30.18 in 10.0 mi SSE 9.2 mph - N/A   Overcast
4:55 AM 29.8 °F 24.9 °F 5.7 °F 36% 30.17 in 10.0 mi SE 4.6 mph - N/A   Overcast
5:55 AM 29.5 °F 23.4 °F 6.3 °F 37% 30.18 in 10.0 mi South 5.8 mph - N/A   Overcast
6:55 AM 29.7 °F 24.7 °F 7.2 °F 39% 30.19 in 10.0 mi South 4.6 mph - N/A   Overcast
7:55 AM 30.9 °F 27.5 °F 8.2 °F 39% 30.19 in 10.0 mi South 3.5 mph - N/A   Overcast
8:55 AM 34.2 °F 31.2 °F 9.3 °F 36% 30.19 in 10.0 mi SSE 3.5 mph - N/A   Mostly Cloudy
9:55 AM 42.4 °F 40.7 °F 12.6 °F 30% 30.18 in 10.0 mi SE 3.5 mph - N/A   Clear
10:55 AM 50.2 °F - 18.0 °F 28% 30.18 in 10.0 mi South 4.6 mph - N/A   Clear
11:55 AM 56.8 °F - 22.5 °F 26% 30.17 in 10.0 mi South 3.5 mph - N/A   Clear
12:55 PM 59.5 °F - 25.0 °F 27% 30.14 in 10.0 mi Calm Calm - N/A   Clear
1:55 PM 62.1 °F - 25.3 °F 25% 30.09 in 10.0 mi North 4.6 mph - N/A   Clear
2:55 PM 63.9 °F - 25.7 °F 24% 30.06 in 10.0 mi Variable 3.5 mph - N/A   Partly Cloudy
3:55 PM 64.2 °F - 26.1 °F 24% 30.04 in 10.0 mi NNW 11.5 mph - N/A   Partly Cloudy
4:55 PM 64.4 °F - 26.8 °F 24% 30.05 in 10.0 mi NNW 6.9 mph - N/A   Scattered Clouds
5:55 PM 63.3 °F - 27.1 °F 25% 30.04 in 10.0 mi Variable 4.6 mph - N/A   Clear
6:55 PM 58.6 °F - 25.9 °F 29% 30.05 in 10.0 mi West 4.6 mph - N/A   Partly Cloudy
7:55 PM 52.5 °F - 24.4 °F 34% 30.06 in 10.0 mi West 5.8 mph - N/A   Clear
8:55 PM 49.5 °F - 23.9 °F 37% 30.07 in 10.0 mi West 6.9 mph - N/A   Clear
9:55 PM 42.6 °F 37.2 °F 23.5 °F 47% 30.07 in 10.0 mi West 9.2 mph - N/A   Clear
10:55 PM 48.2 °F - 25.5 °F 41% 30.05 in 10.0 mi West 9.2 mph - N/A   Clear
11:55 PM 47.3 °F - 26.6 °F 45% 30.04 in 10.0 mi West 10.4 mph - N/A   Clear